HETCH HETCHY (HTH)

Elevation: 3870' · TUOLUMNE R basin · Operator: Hetch Hetchy Water and Power

Provisional data, subject to change.
Query executed Friday at 15:24:35   clock

Select a sensor type for a plot of data.
Note: Reservoir Flows are daily averages.

Earlier

Date RES ELE    STORAGE    RES CHG    OUTFLOW    INFLOW    PPT INC    RAIN    PPTINC4   
 FEET   AF   AF   CFS   CFS   INCHES   INCHES   INCHES  
07/02/2014 -- 349380 -- 525 -- 0.00 19.55 0.00
07/03/2014 -- 348800 -- 555 -- 0.00 19.55 0.00
07/04/2014 -- 348020 -- 552 -- 0.00 19.55 0.00
07/05/2014 -- 347430 -- 498 -- 0.00 19.55 0.00
07/06/2014 -- 346850 -- 453 -- 0.00 19.55 0.00
07/07/2014 -- 346260 -- 471 -- 0.00 19.55 0.00
07/08/2014 -- 345290 -- 629 -- 0.00 19.55 0.00
07/09/2014 -- 344320 -- 575 -- 0.00 19.55 0.00
07/10/2014 -- 343550 -- 557 -- 0.00 19.55 0.00
07/11/2014 -- 342770 -- 521 -- 0.00 19.55 0.00
07/12/2014 -- 341990 -- 506 -- 0.00 19.55 0.00
07/13/2014 -- 341220 -- 424 -- 0.00 19.55 0.00
07/14/2014 -- 340440 -- 574 -- 0.00 19.55 0.00
07/15/2014 -- 339670 -- 586 -- 0.00 19.55 0.00
07/16/2014 -- 338710 -- 441 -- 0.21 19.76 0.19
07/17/2014 -- 337940 -- 589 -- 0.00 19.76 0.00
07/18/2014 -- 337360 -- 566 -- 0.00 19.76 0.00
07/19/2014 -- 336590 -- 567 -- 0.00 19.76 0.00
07/20/2014 -- 335820 -- 481 -- 0.00 19.76 0.01
07/21/2014 -- 335240 -- 589 -- 1.33 21.09 1.31
07/22/2014 -- 334470 -- 580 -- 0.00 21.09 0.00
07/23/2014 -- 333510 -- 552 -- 0.00 21.09 0.00
07/24/2014 -- 332750 -- 545 -- 0.00 21.09 0.00
07/25/2014 -- 331790 -- 541 -- 0.00 21.09 0.00
07/26/2014 -- 330830 -- 511 -- 0.00 21.09 0.00
07/27/2014 -- 330060 -- 455 -- 0.00 21.09 0.00
07/28/2014 -- 329300 -- 489 -- 0.00 21.09 0.00
07/29/2014 -- 328350 -- 566 -- 0.00 21.09 0.00
07/30/2014 -- 327390 -- 521 -- 0.00 21.09 0.00
07/31/2014 -- 326440 -- 548 -- 0.00 21.09 0.00
08/01/2014 -- -- -- -- -- -- -- 0.00

Later | Latest

Warning! This data is preliminary and subject to revision.

Download Data Now Download Data Now | Show HTH Map | Plot HTH Data | 1 Month HTH Data | Real-Time HTH Data | HTH Info